EW5855 Weather Reports


Display with metric or nautical units.
time (UTC)temp
F
wind
direction
speed
MPH
gust
MPH
rain 1hr
in
rain 24hr
in
rain mn
in
humidity
%
barometer
mb
20260902092518 64 223 0.0 1.0 0.00 0.29 0.00 99 1019.9
20260902091534 64 202 0.0 1.0 0.00 0.29 0.00 99 1019.9
20260902090529 64 212 1.0 2.0 0.00 0.29 0.00 99 1019.9
20260902085604 64 219 0.0 1.0 0.00 0.29 0.00 99 1019.8
20260902084521 64 228 0.0 2.0 0.00 0.29 0.00 99 1019.8
20260902083534 64 214 0.0 2.0 0.00 0.29 0.00 99 1019.6
20260902082531 64 0.0 0.0 0.00 0.29 0.00 99 1019.7
20260902081524 64 0.0 0.0 0.00 0.29 0.00 99 1019.6
20260902080551 64 0.0 0.0 0.00 0.29 0.00 99 1019.7
20260902075535 64 0.0 0.0 0.00 0.29 0.00 99 1019.7
20260902074531 64 0.0 0.0 0.00 0.29 0.00 99 1019.7
20260902073546 64 0.0 0.0 0.00 0.29 0.00 99 1019.5
20260902072523 64 0.0 0.0 0.00 0.29 0.00 99 1019.7
20260902071518 64 0.0 0.0 0.00 0.29 0.00 99 1019.7
20260902070534 64 0.0 0.0 0.00 0.29 0.00 99 1019.5
20260902065530 64 0.0 0.0 0.00 0.29 0.00 99 1019.6
20260902064526 64 205 1.0 2.0 0.00 0.29 0.00 99 1019.6
20260902063521 64 0.0 0.0 0.00 0.29 0.00 99 1019.8
20260902062518 64 0.0 0.0 0.00 0.29 0.00 99 1019.8
20260902061534 64 0.0 0.0 0.00 0.29 0.00 99 1019.8
20260902060530 64 0.0 0.0 0.00 0.29 0.00 99 1019.6
20260902055545 64 0.0 0.0 0.00 0.29 0.00 99 1019.6
20260902054601 64 0.0 0.0 0.00 0.29 0.00 99 1019.5
20260902053538 65 0.0 0.0 0.00 0.29 0.00 99 1019.4
20260902052533 65 0.0 0.0 0.00 0.29 0.00 99 1019.3
20260902051549 65 0.0 0.0 0.00 0.29 0.00 99 1019.3
20260902050524 65 0.0 0.0 0.00 0.29 0.00 99 1019.2
20260902045535 65 0.0 0.0 0.00 0.29 0.00 99 1019.2
20260902044530 65 0.0 0.0 0.00 0.29 0.00 98 1019.1
20260902043526 65 0.0 0.0 0.00 0.29 0.00 98 1019.0
20260902042542 65 0.0 0.0 0.00 0.29 0.00 98 1018.8
20260902041517 65 0.0 0.0 0.00 0.29 0.00 98 1018.9
20260902040553 65 0.0 0.0 0.00 0.29 0.00 98 1018.8
20260902035528 66 231 0.0 1.0 0.00 0.29 0.29 97 1018.7
20260902034524 66 196 0.0 1.0 0.00 0.29 0.29 97 1018.6
20260902033519 66 238 1.0 3.0 0.00 0.29 0.29 96 1018.4
20260902032535 66 207 1.0 2.0 0.00 0.29 0.29 95 1018.4
20260902031531 66 249 1.0 3.0 0.00 0.29 0.29 94 1018.4
20260902030526 66 255 1.0 2.0 0.00 0.29 0.29 94 1018.3
20260902025521 66 189 1.0 2.0 0.00 0.29 0.29 96 1018.1
20260902024517 66 205 1.0 3.0 0.00 0.29 0.29 99 1018.4
20260902023532 65 239 2.0 3.0 0.00 0.29 0.29 99 1018.4
20260902022548 65 200 0.0 1.0 0.00 0.29 0.29 99 1018.3
20260902021523 66 252 0.0 2.0 0.00 0.29 0.29 99 1018.4
20260902020519 65 222 1.0 2.0 0.00 0.29 0.29 99 1018.3
20260902015535 66 209 1.0 2.0 0.00 0.29 0.29 99 1018.2
20260902014531 66 200 0.0 2.0 0.00 0.29 0.29 99 1018.0
20260902013606 66 186 0.0 1.0 0.00 0.29 0.29 98 1018.0
20260902012523 67 206 1.0 2.0 0.00 0.29 0.29 95 1017.8
20260902011518 67 77 3.0 6.0 0.00 0.29 0.29 92 1017.9
20260902010553 67 84 0.0 2.0 0.00 0.29 0.29 93 1017.9
20260902005528 67 122 1.0 4.0 0.00 0.29 0.29 95 1017.7
20260902004544 67 60 1.0 2.0 0.00 0.29 0.29 93 1017.7
20260902003519 67 26 1.0 2.0 0.00 0.29 0.29 94 1017.8
20260902002535 67 65 1.0 2.0 0.00 0.29 0.29 95 1017.9
20260902001531 66 0.0 0.0 0.00 0.29 0.29 96 1017.6
20260902000526 67 234 0.0 1.0 0.00 0.29 0.29 98 1017.5
20260901235522 67 263 1.0 1.0 0.00 0.29 0.29 97 1017.4
20260901234517 67 0.0 0.0 0.00 0.29 0.29 96 1017.4
20260901233553 67 0.0 0.0 0.00 0.29 0.29 95 1017.3
20260901232529 68 240 1.0 2.0 0.00 0.29 0.29 95 1017.3
20260901231545 68 238 0.0 1.0 0.00 0.29 0.29 95 1017.3
20260901230521 68 237 1.0 2.0 0.00 0.29 0.29 93 1017.3
20260901225516 69 258 1.0 2.0 0.00 0.29 0.29 92 1017.2
20260901224533 69 129 1.0 2.0 0.00 0.29 0.29 89 1017.0
20260901223528 69 104 1.0 2.0 0.00 0.29 0.29 88 1017.1
20260901222524 70 126 1.0 3.0 0.00 0.29 0.29 89 1017.2
20260901221519 70 131 1.0 2.0 0.00 0.29 0.29 88 1017.2
20260901220516 70 140 1.0 2.0 0.00 0.29 0.29 89 1017.1
20260901215532 70 95 1.0 4.0 0.00 0.29 0.29 88 1017.4
20260901214528 70 137 1.0 3.0 0.00 0.29 0.29 88 1017.2
20260901213524 70 89 1.0 3.0 0.00 0.29 0.29 88 1017.1
20260901212520 70 120 2.0 4.0 0.00 0.29 0.29 88 1017.0
20260901211536 71 211 1.0 2.0 0.00 0.29 0.29 88 1016.9
20260901210531 71 188 1.0 2.0 0.00 0.29 0.29 88 1016.8
20260901205527 71 135 1.0 3.0 0.00 0.29 0.29 88 1016.7
20260901204523 71 147 1.0 2.0 0.00 0.29 0.29 88 1016.7
20260901203517 72 142 1.0 3.0 0.00 0.29 0.29 88 1016.7
20260901202533 72 136 0.0 3.0 0.00 0.29 0.29 87 1016.7
20260901201550 73 190 1.0 3.0 0.00 0.29 0.29 85 1016.8
20260901200526 72 43 1.0 1.0 0.00 0.29 0.29 87 1016.7
20260901195521 73 197 1.0 2.0 0.00 0.29 0.29 85 1016.7
20260901194517 72 267 1.0 2.0 0.00 0.29 0.29 87 1016.8
20260901193531 72 146 2.0 4.0 0.00 0.29 0.29 85 1016.6
20260901192527 71 170 1.0 2.0 0.00 0.29 0.29 89 1016.5
20260901191522 70 93 3.0 8.0 0.00 0.29 0.29 89 1016.5
20260901190537 69 68 3.0 9.0 0.00 0.29 0.29 91 1016.7
20260901185533 68 70 4.0 7.0 0.00 0.29 0.29 93 1016.8
20260901184529 68 75 3.0 8.0 0.00 0.29 0.29 95 1016.9
20260901183525 68 66 2.0 4.0 0.00 0.29 0.29 94 1017.0
20260901182521 67 55 3.0 6.0 0.00 0.29 0.29 94 1017.0
20260901181517 68 77 2.0 6.0 0.00 0.29 0.29 94 1016.9
20260901180533 68 93 1.0 4.0 0.00 0.29 0.29 94 1016.8
20260901175549 68 71 2.0 4.0 0.00 0.29 0.29 95 1016.7
20260901174525 68 85 2.0 4.0 0.00 0.29 0.29 97 1016.8
20260901173521 68 95 2.0 6.0 0.00 0.29 0.29 97 1016.8
20260901172518 67 142 1.0 3.0 0.00 0.29 0.29 98 1016.7
20260901171534 67 79 1.0 2.0 0.00 0.29 0.29 99 1016.9
20260901170550 67 51 1.0 2.0 0.00 0.29 0.29 98 1017.0
20260901165525 67 51 2.0 3.0 0.00 0.29 0.29 98 1016.8
20260901164520 67 48 1.0 3.0 0.00 0.29 0.29 99 1016.9
20260901163516 67 31 1.0 3.0 0.00 0.29 0.29 99 1017.0
20260901162531 67 36 2.0 4.0 0.00 0.29 0.29 99 1017.0
20260901161526 67 21 2.0 7.0 0.01 0.29 0.29 99 1016.9
20260901160522 67 34 2.0 4.0 0.01 0.29 0.29 99 1016.9
20260901155518 67 333 2.0 4.0 0.02 0.29 0.29 99 1016.8
20260901154534 66 266 1.0 3.0 0.03 0.29 0.29 99 1016.7
20260901153531 66 0 2.0 4.0 0.05 0.29 0.29 99 1016.3
20260901152526 66 45 3.0 7.0 0.06 0.29 0.29 99 1016.0
20260901151522 65 57 3.0 4.0 0.06 0.28 0.28 99 1015.9
20260901150518 65 92 2.0 3.0 0.06 0.28 0.28 99 1015.9
20260901145534 65 93 1.0 3.0 0.05 0.27 0.27 99 1016.6
20260901144530 65 129 1.0 2.0 0.04 0.26 0.26 99 1016.6
20260901143526 66 76 1.0 2.0 0.02 0.24 0.24 99 1016.8
20260901142523 65 45 2.0 4.0 0.01 0.23 0.23 99 1016.6
20260901141518 66 59 3.0 4.0 0.00 0.22 0.22 99 1016.5
20260901140534 65 9 1.0 2.0 0.00 0.22 0.22 99 1016.4
20260901135530 65 67 2.0 3.0 0.00 0.22 0.22 99 1016.1
20260901134525 65 65 2.0 4.0 0.00 0.22 0.22 99 1016.3
20260901133540 65 87 1.0 2.0 0.00 0.22 0.22 99 1016.2
20260901132515 65 119 1.0 2.0 0.00 0.22 0.22 99 1016.5
20260901131531 64 66 3.0 6.0 0.00 0.22 0.22 99 1016.9
20260901130527 64 55 2.0 3.0 0.00 0.22 0.22 99 1017.0
20260901125523 64 87 1.0 3.0 0.00 0.22 0.22 99 1017.2
20260901124518 64 64 1.0 2.0 0.00 0.22 0.22 99 1017.4
20260901123535 64 46 2.0 3.0 0.00 0.22 0.22 99 1017.3
20260901122551 64 45 2.0 4.0 0.01 0.22 0.22 99 1017.1
20260901121546 64 57 3.0 4.0 0.01 0.22 0.22 99 1017.3
20260901120542 64 64 2.0 3.0 0.01 0.22 0.22 99 1017.3
20260901115518 64 81 1.0 3.0 0.02 0.22 0.22 99 1017.4
20260901114534 64 159 0.0 1.0 0.06 0.22 0.22 99 1017.4
20260901113529 64 191 1.0 2.0 0.10 0.22 0.22 99 1017.5
20260901112524 64 224 0.0 1.0 0.12 0.21 0.21 99 1017.2
20260901111520 64 242 0.0 1.0 0.15 0.21 0.21 99 1017.1
20260901110535 64 190 0.0 1.0 0.17 0.21 0.21 99 1016.9
20260901105530 64 312 4.0 8.0 0.18 0.20 0.20 99 1016.8
20260901104527 64 187 0.0 1.0 0.15 0.16 0.16 99 1016.2
20260901103522 64 197 0.0 1.0 0.12 0.12 0.12 99 1016.8
20260901102519 64 0.0 0.0 0.09 0.09 0.09 99 1017.1
20260901101535 64 0.0 0.0 0.06 0.06 0.06 99 1017.2
20260901100532 65 192 0.0 1.0 0.04 0.04 0.04 99 1017.2
20260901095526 65 194 0.0 1.0 0.02 0.02 0.02 99 1017.1
20260901094521 65 217 0.0 1.0 0.01 0.01 0.01 99 1016.8
20260901093516 65 212 0.0 1.0 0.00 0.00 0.00 99 1016.5